Regional Weather Roundup
Issued by NWS

Home | Current Version | Previous Version | Graphics & Text | Print | Product List | Glossary On
Versions: 1 2 3 4 5 6 7 8 9 10 11 12 13 14 15 16 17 18 19 20 21 22 23 24 25 26 27 28 29 30 31 32 33 34 35 36 37 38 39 40 41 42 43 44 45 46 47 48 49 50
000
ASUS43 KMPX 220810
RWRMN
WEATHER ROUNDUP FOR MINNESOTA
NATIONAL WEATHER SERVICE TWIN CITIES/CHANHASSEN MN
300 AM CDT FRI SEP 22 2017


NOTE: "FAIR" INDICATES FEW OR NO CLOUDS BELOW 12,000 FEET WITH NO
SIGNIFICANT WEATHER AND/OR OBSTRUCTIONS TO VISIBILITY. N/A MEANS
CURRENT SKY AND/OR WEATHER CONDITIONS ARE NOT AVAILABLE.

MNZ060>063-068>070-220900-
   Twin Cities Metro

CITY           SKY/WX    TMP DP  RH WIND       PRES   REMARKS
TWIN CITIES    CLEAR     75  70  84 SE9       29.82F
ST PAUL        CLEAR     74  69  85 SE14      29.83F
CRYSTAL        CLEAR     75  66  73 SE10      29.80F
BLAINE         CLEAR     77  70  78 SE13G18   29.82F
LAKEVILLE      CLEAR     72  70  94 CALM      29.84F
EDEN PRAIRIE   CLEAR     77  70  79 SE10      29.81F
SOUTH ST PAUL  CLEAR     74  67  78 SE6       29.83F
LAKE ELMO      FAIR      73  68  83 SE8       29.86S
$$
MNZ001>005-007-008-013>017-022>024-027-028-220900-
   Northwest Minnesota

CITY           SKY/WX    TMP DP  RH WIND       PRES   REMARKS
BEMIDJI        CLEAR     60  60  99 CALM      29.78S FOG
HALLOCK          N/A     57  52  82 N8        29.76R
ROSEAU           N/A     63  55  77 CALM      29.77F
WARROAD        MOCLDY    61  55  82 CALM      29.79S
THIEF RVR FALL PTCLDY    62  58  86 N8        29.77R
CROOKSTON      PTCLDY    63  57  82 NE5       29.75S
FOSSTON        CLEAR     64  61  88 SE5       29.76R
DETROIT LAKES  CLOUDY    68  64  88 SE3       29.78R
MOORHEAD       CLOUDY    70  66  88 SE5       29.72R
PARK RAPIDS    PTCLDY    66  65  96 SE6       29.77S
MAHNOMEN       FAIR      67  65  94 SE5       29.76R
$$
MNZ006-009>011-018-025>026-220900-
   North Central Minnesota

CITY           SKY/WX    TMP DP  RH WIND       PRES   REMARKS
BAUDETTE       PTCLDY    59  58  96 SE7       29.78F
FLAG ISLAND    PTCLDY    63  55  77 SE3       29.77F
INTL FALLS     PTCLDY    60  58  92 CALM      29.82S
WASKISH        CLEAR     64  63  94 CALM      29.78S
BIG FORK       PTCLDY    64  61  88 SE3       29.82R
LONGVILLE      CLOUDY    64  64 100 CALM      29.80S
GRAND RAPIDS   TSTM      64  63  94 SE13      29.81F
CRANE LAKE     PTCLDY    59  57  94 CALM      29.85F
ORR            PTCLDY    61  57  88 CALM      29.81S
COOK           CLEAR     63  61  94 CALM      29.84S
WALKER         FAIR      64  64  97 CALM      29.78S
$$
MNZ012-019>021-037-220900-
   Northeast Minnesota

CITY           SKY/WX    TMP DP  RH WIND       PRES   REMARKS
DULUTH         CLOUDY    59  58  96 SE8       29.86F
ELY            CLEAR     64  63  94 S5        29.86R
HIBBING        CLOUDY    55  54  96 CALM      29.85R
EVELETH        CLOUDY    64  59  83 SE3       29.86S
DULUTH HARBOR  LGT RAIN  61  59  94 NE9       29.87S
TWO HARBORS    CLOUDY    63  57  82 NE3       29.85F
SILVER BAY     CLOUDY    57  57 100 CALM      29.86S
GRAND MARAIS     N/A     63  60  90 E5        29.88S
$$
MNZ029>031-032-039>041-046>048-054>057-064-220900-
   West Central Minnesota

CITY           SKY/WX    TMP DP  RH WIND       PRES   REMARKS
FERGUS FALLS   TSTM      73  72  94 E5        29.71F
WHEATON        TSTM      72  64  78 NW8G17    29.77R
MORRIS         CLOUDY    75  72  88 SE15      29.70F
ALEXANDRIA     CLOUDY    72  70  93 SE9       29.76F THUNDER
ELBOW LAKE     FAIR      73  70  92 SE9       29.72F THUNDER
WADENA         CLOUDY    66  66 100 CALM      29.77R FOG
GLENWOOD       CLEAR     73  72  94 SE12      29.77S
APPLETON       CLOUDY    73  70  88 SE8       29.71R
BENSON         CLEAR     75  70  83 S10       29.75S
ORTONVILLE     PTCLDY    72  70  94 NE9       29.70S
MADISON        CLEAR     73  73 100 SE7       29.70S
WILLMAR        FAIR      75  72  88 SE9       29.77S
$$
MNZ033>034-036-042>043-049>051-058-059-220900-
   Central Minnesota

CITY           SKY/WX    TMP DP  RH WIND       PRES   REMARKS
ST CLOUD       CLEAR     74  71  91 SE9       29.79S
SAUK CENTRE    FAIR      73  70  91 S8        29.77F
PAYNESVILLE    PTCLDY    75  71  87 SE9       29.79R
AITKIN         TSTM      70  66  88 S8        29.79F
PINE RIVER     CLOUDY    64  63  94 SE6       29.83R
BRAINERD       PTCLDY    71  69  93 SE9       29.80R
STAPLES        CLEAR     66  66 100 E3        29.78R
LITTLE FALLS   PTCLDY    70  64  83 SE5       29.79R
LITCHFIELD     PTCLDY    79  72  78 SE7       29.79S
BUFFALO        CLEAR     76  69  77 SE7       29.81S
MAPLE LAKE     CLEAR     76  71  84 SE5       29.81S
HUTCHINSON     CLEAR     75  71  87 SE7       29.79F
$$
MNZ037-044-045-052-053-220900-
   East Central Minnesota

CITY           SKY/WX    TMP DP  RH WIND       PRES   REMARKS
PRINCETON      PTCLDY    72  70  94 SE6       29.81F
MORA           CLOUDY    70  64  83 SE5       29.84F
CAMBRIDGE      CLEAR     75  64  69 SE7       29.82F
RUSH CITY      PTCLDY    72  66  81 S7        29.83F
MOOSE LAKE     CLOUDY    61  59  94 CALM      29.82F
HINCKLEY       FAIR      70  66  88 E3        29.84S
CLOQUET        CLOUDY    59  55  88 SE6       29.85F
MCGREGOR       CLOUDY    64  63  94 W3        29.84S THUNDER
$$
MNZ071>073-080-081-089-090-097-098-220900-
   Southwest Minnesota

CITY           SKY/WX    TMP DP  RH WIND       PRES   REMARKS
MONTEVIDEO     CLEAR     72  72 100 S7        29.72S
GRANITE FALLS  CLEAR     74  72  91 SE8       29.74S
CANBY          CLEAR     70  69  96 E5        29.71S FOG
MARSHALL       CLEAR     76  72  87 S20G26    29.71F
REDWOOD FALLS  CLEAR     73  69  87 SE9       29.74F
OLIVIA         CLEAR     73  70  88 SE12      29.75S
PIPESTONE      CLEAR     73  72  94 S12G18    29.75F
WORTHINGTON    CLEAR     74  71  91 S13G21    29.79F
JACKSON        PTCLDY    73  68  83 S10       29.82S
TRACY          CLEAR     76  73  91 S15G21    29.75S
SLAYTON        CLEAR     73  70  88 S9G17     29.78F
$$
MNZ065>067-074>077-082>085-091>093-220900-
   South Central Minnesota

CITY           SKY/WX    TMP DP  RH WIND       PRES   REMARKS
MANKATO        CLEAR     76  70  82 S12       29.81F
NEW ULM        CLEAR     75  68  78 S13       29.78S
ST JAMES       CLEAR     75  70  83 S16G22    29.80S
FAIRMONT       CLEAR     74  70  87 S13       29.82S
GLENCOE        CLEAR     76  73  89 SE9       29.78F
FARIBAULT      CLEAR     75  70  83 SE8       29.85F
OWATONNA       CLEAR     75  70  83 S13       29.85F
WASECA         CLEAR     77  70  78 S14G22    29.85F
ALBERT LEA     CLEAR     77  70  78 S9        29.87S
$$
MNZ078>079-086>088-094>096-220900-
   Southeast Minnesota

CITY           SKY/WX    TMP DP  RH WIND       PRES   REMARKS
ROCHESTER      CLEAR     71  68  90 S14       29.90F
RED WING       CLOUDY    75  66  73 SE12      29.86F
STANTON        CLEAR     76  68  78 S7        29.84S
DODGE CENTER   CLEAR     73  66  78 S10       29.88F
WINONA         CLEAR     73  70  88 CALM      29.91F
AUSTIN         CLEAR     73  68  83 S12       29.89S
PRESTON        CLEAR     72  67  87 S13G18    29.92F
$$
ABBREVIATIONS USED IN REMARKS
   TC - TEMPERATURES IN CELSIUS
  WCI - WIND CHILL INDEX
   HX - HEAT INDEX
  VSB - VISIBILITY
$$




USA.gov is the U.S. government's official web portal to all federal, state and local government web resources and services.